Wind_Speed
23 22 19 18 17 15 12 11 9 7 6 6 7 8 10 14 16 16 17 17 18 19 20 21 23 24 25 26 26 25 24 24 24 23 23 24 24 25 25 25 24 23 22 21 20 20 20 21 22 23 25 25 26 27 27 28 28 28 28 27 27 28 29
25 23 21 19 18 16 13 12 9 8 9 9 9 10 12 15 17 18 17 18 19 20 21 22 24 25 26 26 26 25 24 24 24 24 24 24 25 26 26 26 25 24 23 22 21 20 20 20 21 22 23 24 25 27 27 28 28 29 30 30 30 29 30
26 23 21 20 18 16 15 13 10 10 10 10 11 11 13 15 18 18 18 19 20 21 22 23 25 26 26 26 26 25 24 23 23 24 24 24 25 26 26 26 25 25 24 23 23 21 20 20 20 21 23 24 25 26 27 28 29 30 30 31 32 32 32
24 24 22 20 19 18 17 15 13 12 11 11 12 12 13 16 19 19 19 20 21 22 23 24 26 27 27 26 25 24 24 23 23 23 24 25 25 26 26 26 26 25 24 23 22 21 20 19 19 19 21 23 24 26 27 28 29 30 31 31 32 33 33
21 23 23 22 21 20 19 16 14 14 12 13 13 13 14 16 19 20 20 21 22 23 24 25 26 27 27 26 25 24 23 22 22 22 23 24 25 25 25 25 25 25 23 22 21 20 19 19 18 19 20 21 23 25 27 28 29 30 30 31 32 33 33
18 21 22 22 22 21 20 17 16 16 14 14 14 14 15 17 20 21 21 22 23 24 25 26 27 27 27 26 24 23 22 21 21 22 23 24 25 25 25 24 24 23 22 21 20 19 19 19 19 19 20 20 21 22 24 26 27 28 29 30 30 30 31
15 17 18 21 22 22 21 18 18 18 15 14 15 15 15 17 20 22 22 23 24 25 25 26 27 27 26 25 23 21 20 20 21 23 24 25 25 24 24 24 23 21 20 20 20 20 20 20 20 20 20 20 21 21 22 23 23 24 25 26 27 28 29
14 15 17 19 22 23 22 20 20 19 16 15 16 15 16 18 20 22 23 24 25 25 26 26 26 26 25 23 22 20 20 21 22 24 24 24 24 24 23 23 21 20 20 20 21 21 21 20 20 20 21 21 21 21 21 21 21 22 24 25 26 28 29
15 16 16 18 22 24 23 22 22 21 17 16 16 15 16 18 21 22 24 25 26 26 25 26 25 25 24 22 21 20 21 22 23 24 24 24 23 23 23 22 20 20 19 19 20 20 20 19 19 20 21 21 20 19 19 19 20 21 23 25 27 28 30
17 17 17 19 22 24 24 24 24 22 18 16 16 15 16 19 21 23 24 25 26 25 25 25 24 24 23 22 22 21 22 22 23 24 24 23 23 23 22 21 20 19 18 18 19 19 19 20 20 20 21 20 18 17 18 19 20 22 23 25 27 28 29
16 17 18 20 23 25 26 26 25 21 17 16 16 15 17 19 21 23 25 26 25 25 24 24 23 23 23 22 23 22 22 23 23 23 23 22 22 23 23 22 21 19 19 18 19 19 19 20 20 20 20 19 17 16 17 19 20 21 23 24 24 25 26
14 16 19 21 24 26 27 27 24 19 16 16 16 15 17 19 21 23 25 25 24 24 23 23 22 22 22 23 23 22 22 22 23 24 23 22 22 22 23 22 21 20 19 19 18 19 19 19 20 20 19 19 18 17 17 18 19 22 24 24 24 25 26
14 16 19 22 24 26 27 27 23 18 16 16 15 16 18 19 21 24 25 24 23 23 23 22 21 22 22 23 23 22 21 22 23 24 24 23 22 21 21 21 21 21 21 20 19 19 19 19 19 20 19 19 19 19 19 19 19 21 23 24 25 27 29
16 17 20 22 24 26 27 25 21 17 16 16 15 17 18 18 21 24 24 23 23 23 22 21 21 21 22 23 22 21 22 23 24 25 25 25 23 21 20 20 21 21 22 21 20 20 20 20 19 19 18 18 18 19 20 20 21 22 22 24 26 28 30
18 19 20 22 23 24 25 23 19 17 17 16 16 17 17 18 22 24 23 23 22 23 22 21 21 21 22 21 21 22 23 25 25 25 26 26 24 22 20 20 20 21 22 22 21 21 21 21 20 18 17 17 18 19 20 21 22 23 23 24 26 28 30
19 19 20 21 20 22 22 21 18 18 17 16 16 17 17 20 23 23 22 22 22 23 23 21 20 21 20 20 21 23 25 26 26 26 25 26 25 23 21 20 20 21 22 22 21 20 20 20 19 18 16 15 17 18 19 21 22 23 23 24 26 28 30
18 18 19 19 19 21 21 19 19 18 16 16 16 16 18 21 22 21 21 21 22 24 24 21 20 19 19 20 22 24 25 26 26 26 25 25 24 23 22 21 21 21 22 22 21 19 18 18 18 17 16 16 17 17 19 21 22 23 24 24 26 27 30
17 16 16 17 19 20 20 20 19 17 15 15 15 17 21 23 22 20 20 20 22 25 23 20 18 18 19 21 23 24 26 26 26 26 25 24 23 23 22 21 21 22 22 22 20 17 16 16 16 17 17 17 18 18 20 21 23 23 24 24 24 25 28
16 14 13 14 17 18 18 18 17 15 15 14 15 19 23 22 20 20 20 20 22 24 22 18 18 18 20 22 23 24 25 26 26 26 24 23 23 23 22 22 22 22 23 21 19 17 16 16 16 16 17 18 19 20 20 22 23 24 23 23 23 24 26
16 15 13 12 14 16 17 17 16 15 14 14 17 22 23 20 19 20 20 20 22 22 20 18 19 19 21 22 23 24 24 25 26 26 24 23 23 23 23 23 22 22 22 20 19 17 16 16 16 17 18 19 20 21 21 21 23 23 23 23 23 22 25
11 12 11 11 13 16 17 17 15 13 14 17 20 22 21 18 19 20 21 21 22 21 20 19 20 20 21 22 23 23 24 25 25 25 24 22 22 22 22 22 22 21 20 18 18 17 16 16 16 18 19 20 21 21 21 21 23 22 22 22 22 21 23
5 7 9 10 12 14 16 15 13 13 16 19 20 20 18 17 19 21 21 22 22 20 20 20 20 21 22 23 23 23 24 24 24 24 23 22 21 21 21 22 21 20 18 17 16 17 17 17 17 18 19 20 20 20 20 21 22 22 21 21 20 20 21
3 6 9 11 13 14 14 13 13 16 18 18 17 16 16 17 19 21 21 22 21 21 21 21 21 22 23 23 23 23 24 24 24 24 23 22 22 21 21 21 21 20 18 16 16 17 18 17 17 17 18 19 20 20 20 20 20 20 20 21 20 19 20
0 4 10 13 14 13 12 12 14 16 16 15 15 14 15 18 20 21 22 22 22 22 22 22 22 22 23 24 24 24 24 24 24 23 22 21 21 21 21 21 21 20 18 16 16 18 18 17 16 16 17 18 19 20 20 19 19 19 19 20 20 19 19
1 4 10 12 11 9 10 12 14 15 15 15 15 14 15 18 20 22 22 22 23 23 23 23 23 23 24 25 25 25 25 25 25 23 21 21 21 21 21 21 21 20 18 17 17 18 17 16 15 15 16 17 18 20 20 20 20 20 19 19 20 19 19
2 6 8 8 7 8 10 12 14 14 15 16 16 14 16 19 21 22 22 22 24 24 23 24 24 23 23 25 25 25 25 25 25 23 20 20 20 20 21 21 20 19 18 16 17 17 16 15 15 15 16 17 18 20 21 21 21 20 19 19 19 19 19
3 5 5 6 7 9 11 13 14 14 15 17 16 15 17 20 22 23 23 23 24 24 24 25 26 24 24 24 25 25 24 25 25 23 20 20 20 20 21 21 20 19 17 16 16 17 16 16 15 16 17 18 19 20 22 22 21 20 19 19 19 19 19
3 3 5 7 9 12 13 14 14 15 16 17 17 17 18 20 22 23 23 24 25 25 25 27 27 26 25 25 25 25 24 24 24 23 21 20 20 20 21 22 21 19 17 15 15 17 17 17 17 18 18 19 20 21 22 22 21 20 19 18 18 19 20
4 5 7 10 12 14 14 14 15 16 17 18 18 19 19 20 23 25 25 26 26 26 26 28 28 27 26 26 26 26 24 23 24 23 21 21 20 20 21 22 21 19 18 17 17 17 18 18 18 19 19 19 20 20 20 20 20 20 19 18 18 18 19
6 8 10 12 14 14 15 16 17 17 18 19 20 20 20 22 24 26 27 26 26 26 27 29 28 27 26 27 27 25 24 24 24 23 22 22 22 22 22 22 21 20 19 19 18 18 18 19 19 20 20 20 21 20 20 19 19 19 19 18 18 18 18
9 11 12 14 15 16 17 18 19 20 21 21 21 21 22 24 26 28 27 26 26 27 29 29 28 27 26 26 26 25 24 24 24 24 23 22 22 23 23 22 20 20 20 20 20 19 19 19 20 20 20 21 21 20 19 18 18 18 17 17 18 18 18
12 13 14 15 17 18 20 21 22 23 23 23 23 23 24 26 28 28 27 26 27 29 29 29 28 26 25 26 27 26 25 25 24 24 24 22 22 22 22 21 20 20 21 20 20 20 21 20 20 20 20 20 20 20 19 18 17 17 16 16 17 18 18
13 15 16 17 19 21 22 24 25 25 25 26 26 27 28 30 29 28 27 27 28 29 29 28 27 27 26 27 27 28 27 26 24 24 24 22 21 22 22 21 21 21 21 20 20 21 21 21 20 19 19 19 19 19 19 18 17 16 15 15 16 17 17
15 16 17 19 21 22 23 25 26 28 29 30 31 31 31 30 29 28 28 27 28 29 28 27 27 27 26 26 28 29 29 27 25 23 22 21 21 21 21 21 22 23 22 20 20 21 21 20 19 18 18 19 19 19 18 18 17 16 15 15 15 16 17
16 17 19 20 22 23 23 24 25 26 28 30 30 30 29 29 28 28 27 28 28 28 27 26 25 26 25 26 27 29 29 28 26 24 22 21 21 21 21 22 24 24 22 21 20 21 21 20 19 18 18 19 20 20 19 18 17 16 15 15 15 16 16
17 19 21 22 23 24 24 24 24 24 25 26 27 27 28 28 28 27 28 28 28 28 26 25 25 25 25 25 26 27 28 28 25 24 24 23 21 21 22 23 24 25 23 21 21 20 20 19 19 18 19 19 21 21 20 17 16 15 16 16 17 16 16
20 22 23 24 25 25 25 24 24 24 24 24 25 26 27 27 28 28 29 29 28 28 27 26 26 25 25 25 26 26 28 28 24 23 24 24 23 23 24 23 24 25 24 22 21 20 19 19 19 19 19 19 20 20 19 18 16 16 16 16 17 17 16
23 25 25 25 25 25 24 23 22 23 23 24 25 26 27 28 29 30 31 30 30 29 27 26 26 26 26 27 27 27 28 27 25 24 25 25 24 25 25 24 24 25 24 22 22 21 20 19 19 19 19 20 19 19 19 18 18 17 17 16 16 16 15
Wind_Direction
223 221 212 208 214 217 216 216 221 242 274 303 323 330 336 343 345 345 343 341 338 335 333 331 329 327 326 325 325 326 324 322 320 320 320 319 318 318 318 319 319 319 317 315 311 305 299 294 292 291 291 291 291 289 288 285 282 280 279 277 271 266 266
217 218 212 211 217 221 223 226 232 252 272 291 310 324 330 338 345 345 342 340 336 334 333 331 329 326 324 322 322 323 322 321 321 320 320 320 320 320 320 320 320 320 320 318 316 312 306 299 295 292 291 291 291 290 289 288 285 283 280 279 276 272 269
208 213 211 212 218 223 229 232 238 255 270 283 296 313 324 333 341 342 339 337 334 333 333 330 328 325 323 321 321 322 322 321 321 321 320 321 321 322 321 320 320 319 319 319 318 316 312 306 301 297 294 292 291 290 289 287 285 284 281 278 277 276 273
205 208 210 213 217 223 230 233 238 252 268 278 285 303 318 327 336 337 335 334 333 332 332 329 327 324 322 321 322 323 322 322 321 321 321 321 322 322 322 321 320 319 319 319 319 318 316 313 308 302 297 293 291 289 288 287 285 283 281 279 277 276 275
210 207 209 212 215 223 232 234 237 249 264 274 279 296 313 323 331 333 333 333 332 331 331 329 326 323 322 322 324 324 323 322 322 321 321 322 322 322 321 320 319 319 320 321 321 321 321 318 313 308 302 297 293 290 289 288 287 285 283 282 280 278 277
219 212 212 213 215 224 233 232 234 245 260 271 277 293 309 319 326 329 331 332 331 331 330 327 324 322 322 324 326 325 323 323 323 322 322 322 322 322 320 319 318 319 321 322 323 324 323 321 318 314 309 305 301 297 295 293 293 292 291 289 287 285 282
221 220 219 218 218 225 231 231 233 243 257 267 276 292 307 315 321 325 329 331 330 330 328 326 323 322 323 326 327 326 325 325 324 323 322 321 321 321 320 320 319 320 321 321 322 323 323 323 322 320 317 314 311 309 307 304 302 301 299 296 294 291 289
217 221 222 222 221 225 230 232 236 243 254 263 274 290 303 311 318 323 328 330 329 327 326 324 323 323 324 327 328 328 327 327 325 322 320 319 319 319 320 321 321 321 321 320 321 323 324 326 326 326 324 319 315 312 312 310 307 306 303 300 296 292 289
214 219 222 223 223 227 231 234 238 244 251 260 273 287 300 308 315 322 327 328 326 325 324 323 322 323 325 327 328 328 328 327 323 319 318 317 318 319 321 322 322 322 322 321 322 324 326 327 330 331 330 327 320 315 313 313 315 316 314 310 305 298 295
213 217 221 223 224 227 231 235 241 246 249 257 271 285 297 305 313 321 325 325 323 323 323 322 323 323 324 325 326 326 326 324 320 317 316 317 318 319 321 322 322 321 321 321 322 323 325 327 330 333 335 335 332 324 319 320 323 324 322 319 313 306 302
215 217 221 224 227 230 232 238 244 246 246 256 270 285 295 302 313 321 323 321 321 322 322 322 323 323 323 323 324 325 325 322 319 316 316 318 319 321 322 322 322 321 319 318 318 319 321 323 326 330 333 334 333 328 326 326 327 324 323 325 324 319 316
219 220 223 228 233 235 237 240 244 243 244 256 270 285 293 301 314 320 320 319 320 321 321 322 322 322 322 323 324 325 325 323 320 318 316 318 320 322 322 322 321 319 316 313 312 311 314 318 321 325 329 331 329 327 327 327 325 321 322 329 333 333 333
230 226 225 230 237 238 239 242 242 240 246 258 272 284 290 301 315 318 316 316 317 320 321 321 321 322 322 323 325 326 327 326 323 319 317 317 320 322 322 322 321 317 313 309 307 306 308 313 317 321 325 327 327 326 324 323 321 319 322 328 332 333 334
242 234 228 230 236 239 240 242 240 239 248 260 273 283 289 303 315 316 314 313 316 319 322 322 321 322 323 324 325 327 328 327 324 321 317 315 317 319 320 322 322 320 316 311 307 306 307 311 316 319 322 324 325 324 321 318 316 317 321 325 328 330 332
244 240 235 234 236 241 242 240 238 240 249 262 275 282 290 306 313 313 312 312 317 323 325 324 322 323 323 323 325 327 329 328 326 322 316 313 312 313 314 317 320 321 319 315 311 308 308 311 314 318 320 321 323 322 319 316 314 315 318 321 323 327 332
244 241 241 241 242 244 243 239 236 241 253 266 276 282 295 308 311 312 311 313 322 329 329 326 322 322 323 324 326 329 329 329 327 322 317 311 309 308 309 311 314 318 318 316 314 311 309 310 312 316 317 319 321 321 318 316 313 313 316 318 321 326 331
245 240 241 244 246 245 241 235 235 244 259 271 277 287 302 307 309 312 313 318 328 332 330 326 321 321 324 326 329 330 331 330 327 322 317 312 308 307 307 308 311 314 315 314 314 311 308 307 310 313 313 316 319 318 316 314 311 312 314 315 320 326 330
245 240 240 245 246 243 237 233 238 251 263 271 282 296 303 304 307 314 317 322 329 330 328 323 320 322 327 328 330 331 331 330 327 323 319 314 312 310 309 309 311 312 313 313 311 309 305 305 308 311 310 313 316 315 314 311 309 310 312 314 322 328 330
239 229 227 237 244 241 235 235 244 255 265 277 292 299 300 302 308 316 320 323 325 326 325 321 320 325 328 329 330 331 332 331 328 324 320 315 312 311 312 313 314 313 314 313 310 307 305 304 307 309 309 311 315 316 315 310 307 309 311 314 323 330 330
227 215 206 218 233 232 231 237 246 257 272 288 295 295 298 304 309 314 317 319 319 322 323 322 324 327 328 328 329 330 332 332 328 324 319 313 311 311 315 318 318 317 316 315 313 311 310 309 309 310 310 311 313 314 315 311 308 309 312 315 324 331 331
213 205 196 201 219 227 231 240 251 267 283 291 291 294 301 305 306 309 312 312 315 318 321 325 328 328 326 326 328 330 332 331 328 322 317 313 313 316 320 322 320 319 319 319 319 319 318 318 315 314 313 312 314 316 317 315 311 312 313 315 324 332 332
191 187 185 195 215 228 233 243 260 277 285 287 290 299 305 303 302 306 306 307 311 314 319 326 328 325 325 325 326 328 330 329 327 322 316 315 318 323 326 323 320 321 322 324 326 326 327 327 324 320 318 318 320 322 322 320 316 316 317 317 324 333 332
165 175 182 195 211 224 234 251 270 279 283 289 297 306 304 297 297 299 299 300 305 310 317 323 325 323 323 324 324 325 327 327 326 322 317 317 321 325 326 323 321 322 324 327 331 332 332 333 331 329 329 328 328 327 326 325 322 322 324 321 325 332 332
116 183 190 198 210 227 248 267 277 283 287 294 305 310 300 289 288 290 292 295 300 306 313 319 320 320 321 322 322 322 323 325 325 321 318 317 320 324 325 323 322 323 326 331 335 335 335 336 338 339 338 336 334 331 330 329 328 331 334 330 328 329 331
305 187 192 202 219 247 269 279 285 288 289 297 310 308 292 281 280 284 289 291 294 301 310 314 315 318 319 319 318 318 320 322 322 320 316 315 318 321 323 324 324 325 329 336 338 336 335 336 339 341 340 338 337 337 336 333 330 334 339 338 335 331 328
211 188 198 217 247 271 283 287 290 289 289 301 310 301 285 279 276 280 286 287 289 298 305 307 309 313 316 315 315 315 317 318 319 317 313 312 315 318 321 322 323 325 330 337 337 333 333 336 338 341 341 340 339 339 339 336 331 333 337 340 341 339 332
205 204 224 249 271 284 290 292 292 288 291 301 303 292 284 279 274 277 282 282 287 296 300 300 303 308 310 311 311 311 312 314 315 314 310 308 309 314 317 320 321 324 328 333 334 332 334 339 342 344 345 343 340 338 339 338 335 334 336 340 344 346 342
239 250 264 274 282 289 292 292 291 289 290 293 291 287 284 276 271 274 278 279 286 292 292 294 298 303 305 307 307 306 308 310 311 310 306 304 304 309 314 316 318 321 324 327 331 334 336 340 342 344 346 345 342 340 339 340 338 337 339 341 345 348 347
278 281 280 282 287 292 294 293 292 289 286 284 284 284 281 272 268 271 274 278 284 285 285 290 296 300 304 306 305 304 304 306 308 305 301 298 298 302 308 311 314 317 320 323 327 330 334 336 338 339 341 343 344 342 340 340 341 341 342 345 348 350 350
283 282 279 281 286 290 291 292 290 286 282 279 280 281 277 268 266 269 273 277 279 278 281 288 294 301 305 306 304 303 301 303 305 302 296 294 295 297 301 305 310 313 316 319 322 325 329 331 331 332 334 336 340 341 339 339 340 342 345 347 349 351 352
278 277 276 279 284 287 289 289 286 282 279 276 276 278 275 267 265 268 272 274 273 274 280 288 295 303 306 304 302 300 298 299 302 299 294 292 294 296 297 301 305 308 310 315 319 322 325 326 326 327 327 329 334 337 337 337 337 340 344 347 349 350 351
275 274 275 279 284 289 291 289 286 282 278 274 274 275 273 268 266 266 267 268 269 274 282 290 296 301 303 300 298 296 295 296 298 295 291 289 292 296 296 298 301 302 304 311 317 320 322 324 325 325 324 325 330 334 335 334 334 335 339 344 347 347 347
274 276 281 287 292 295 294 290 285 281 277 274 274 275 272 269 266 264 264 267 272 279 286 291 294 298 299 297 297 295 293 291 291 290 289 289 291 293 295 297 299 300 301 308 314 317 320 323 324 324 322 322 325 330 331 331 330 331 334 339 343 344 343
279 285 292 298 301 300 296 290 286 281 278 276 276 274 271 269 267 266 269 273 278 283 286 289 294 297 297 296 296 294 291 290 288 285 285 286 286 288 293 296 298 299 300 305 309 313 317 322 324 324 321 319 322 325 326 326 327 329 330 333 337 341 342
286 294 301 305 303 300 297 293 289 285 281 278 274 269 267 267 268 269 273 277 279 282 285 288 292 294 294 294 295 294 293 294 291 283 279 281 284 287 291 294 295 297 299 302 305 309 314 320 323 323 320 318 320 322 323 322 324 326 327 329 333 338 341
293 300 304 305 304 302 299 296 292 288 283 276 269 264 264 266 268 271 274 277 279 282 285 287 289 290 290 292 292 291 292 294 291 281 277 280 282 283 285 287 291 294 297 298 301 304 310 317 321 320 318 317 318 320 322 323 323 326 328 330 331 335 339
296 300 302 303 305 305 302 297 292 285 277 271 266 264 265 268 270 273 275 277 279 281 283 284 286 286 286 287 286 285 288 291 288 279 278 280 279 277 278 281 286 289 291 294 297 300 306 314 317 316 316 316 317 319 322 324 326 327 329 330 330 331 335
294 297 301 305 308 307 303 295 288 279 272 267 264 264 265 267 269 271 273 275 276 278 279 280 280 279 280 281 282 283 286 289 284 275 275 278 276 274 275 278 281 285 288 290 293 296 302 310 312 312 312 313 314 316 318 320 324 326 326 328 330 330 332
Height
3192 3194 3195 3196 3197 3197 3198 3198 3198 3199 3199 3199 3199 3198 3198 3197 3196 3194 3193 3192 3191 3189 3188 3186 3184 3182 3179 3177 3175 3173 3171 3169 3167 3165 3164 3162 3161 3159 3158 3156 3154 3152 3150 3148 3147 3146 3145 3144 3143 3142 3141 3139 3138 3138 3137 3136 3135 3135 3134 3134 3134 3134 3134
3189 3191 3192 3193 3194 3195 3195 3196 3196 3196 3196 3196 3196 3196 3196 3195 3194 3192 3191 3190 3189 3187 3186 3184 3182 3180 3177 3175 3173 3171 3169 3167 3165 3163 3161 3160 3158 3157 3155 3153 3151 3150 3148 3146 3144 3143 3142 3141 3140 3139 3138 3137 3136 3135 3134 3133 3132 3131 3131 3130 3130 3131 3131
3186 3188 3190 3191 3192 3193 3193 3193 3194 3194 3194 3194 3194 3194 3194 3193 3192 3190 3189 3188 3187 3185 3184 3182 3179 3177 3175 3173 3171 3169 3167 3164 3162 3161 3159 3158 3156 3154 3152 3150 3149 3147 3145 3144 3142 3141 3140 3139 3138 3137 3136 3135 3134 3132 3131 3129 3128 3127 3127 3126 3126 3126 3127
3184 3186 3188 3189 3190 3190 3191 3191 3192 3192 3192 3192 3192 3192 3192 3191 3190 3188 3187 3186 3185 3183 3181 3179 3177 3175 3172 3170 3168 3166 3164 3162 3160 3158 3156 3155 3153 3151 3149 3148 3146 3144 3143 3142 3140 3139 3138 3136 3135 3134 3133 3132 3131 3130 3128 3126 3125 3124 3123 3123 3122 3122 3122
3182 3184 3185 3186 3187 3188 3188 3189 3190 3190 3190 3190 3190 3190 3190 3189 3187 3186 3185 3184 3182 3181 3179 3177 3175 3172 3170 3168 3166 3163 3161 3160 3158 3156 3154 3153 3151 3149 3147 3145 3144 3142 3141 3139 3138 3137 3135 3134 3133 3132 3131 3129 3128 3127 3125 3124 3122 3121 3120 3119 3118 3118 3118
3180 3181 3182 3184 3185 3186 3186 3187 3188 3188 3189 3189 3188 3188 3187 3186 3185 3184 3183 3181 3180 3178 3176 3174 3172 3170 3167 3165 3163 3161 3159 3158 3156 3154 3152 3151 3149 3148 3146 3144 3142 3140 3139 3137 3136 3135 3133 3132 3130 3129 3128 3127 3125 3124 3122 3120 3119 3118 3117 3116 3115 3114 3114
3179 3180 3181 3182 3183 3184 3185 3186 3186 3186 3187 3187 3186 3186 3185 3184 3183 3182 3180 3179 3177 3176 3174 3172 3169 3167 3165 3163 3161 3159 3158 3156 3154 3152 3150 3149 3147 3146 3144 3142 3140 3138 3137 3135 3134 3132 3131 3129 3128 3126 3125 3123 3122 3121 3119 3118 3116 3115 3114 3113 3112 3111 3110
3177 3178 3179 3180 3181 3182 3183 3184 3184 3184 3185 3185 3184 3184 3183 3182 3181 3180 3178 3176 3175 3173 3171 3169 3167 3165 3163 3161 3159 3157 3156 3154 3152 3150 3149 3147 3146 3144 3142 3140 3138 3136 3135 3133 3131 3130 3129 3127 3126 3124 3122 3121 3119 3118 3117 3116 3114 3113 3111 3109 3108 3107 3106
3176 3177 3178 3179 3180 3180 3181 3181 3181 3182 3182 3182 3182 3181 3181 3180 3179 3177 3176 3174 3172 3171 3169 3166 3164 3162 3161 3159 3157 3155 3153 3152 3150 3148 3147 3145 3144 3142 3140 3138 3136 3134 3133 3131 3130 3128 3126 3125 3124 3122 3120 3118 3116 3115 3114 3113 3112 3110 3108 3106 3104 3103 3101
3174 3175 3176 3176 3177 3178 3178 3178 3179 3179 3180 3180 3179 3179 3179 3178 3176 3175 3173 3172 3170 3168 3166 3164 3162 3160 3158 3157 3155 3153 3151 3150 3148 3146 3145 3143 3142 3140 3137 3135 3133 3132 3131 3129 3128 3126 3125 3123 3122 3120 3118 3116 3114 3113 3112 3111 3109 3107 3105 3103 3101 3099 3097
3172 3173 3173 3174 3174 3174 3175 3175 3176 3177 3178 3178 3177 3177 3177 3176 3174 3172 3171 3169 3167 3165 3163 3161 3160 3158 3156 3154 3152 3151 3149 3148 3146 3144 3143 3141 3139 3137 3135 3133 3131 3130 3128 3127 3126 3124 3123 3121 3120 3118 3117 3115 3113 3111 3110 3108 3107 3105 3103 3101 3098 3096 3094
3169 3170 3170 3171 3171 3172 3172 3173 3174 3175 3176 3175 3175 3175 3174 3173 3172 3170 3168 3166 3164 3163 3161 3159 3157 3156 3154 3152 3150 3149 3147 3146 3144 3142 3141 3139 3137 3135 3133 3131 3129 3128 3126 3125 3124 3122 3121 3120 3118 3117 3115 3113 3111 3109 3107 3106 3104 3103 3101 3098 3096 3094 3092
3167 3167 3167 3168 3168 3169 3169 3170 3172 3173 3173 3173 3173 3173 3172 3171 3169 3167 3165 3164 3162 3160 3159 3157 3155 3153 3152 3150 3148 3147 3145 3144 3142 3140 3138 3137 3135 3133 3132 3129 3128 3126 3124 3123 3122 3120 3119 3118 3116 3115 3113 3111 3109 3107 3105 3104 3102 3100 3098 3096 3094 3091 3089
3164 3164 3164 3164 3165 3166 3167 3168 3169 3170 3170 3170 3170 3170 3169 3168 3166 3165 3163 3161 3160 3158 3156 3155 3153 3151 3149 3147 3146 3145 3143 3141 3140 3138 3136 3134 3133 3131 3130 3128 3126 3124 3123 3121 3120 3118 3117 3116 3114 3113 3111 3109 3107 3105 3103 3101 3099 3098 3096 3093 3091 3088 3086
3161 3161 3161 3161 3162 3163 3164 3166 3167 3168 3168 3168 3168 3168 3167 3165 3164 3162 3160 3159 3157 3156 3154 3152 3151 3149 3147 3146 3144 3143 3141 3139 3137 3135 3134 3132 3131 3129 3128 3126 3124 3122 3121 3119 3117 3116 3115 3113 3112 3110 3109 3107 3105 3103 3101 3099 3097 3095 3093 3090 3088 3085 3082
3157 3158 3158 3159 3160 3161 3162 3164 3165 3165 3165 3165 3166 3165 3164 3162 3161 3160 3158 3157 3155 3153 3152 3150 3148 3147 3145 3143 3142 3140 3138 3136 3134 3133 3131 3130 3128 3127 3125 3124 3122 3120 3119 3117 3115 3114 3112 3111 3109 3108 3107 3105 3103 3101 3099 3096 3094 3092 3090 3087 3085 3082 3079
3154 3154 3155 3156 3157 3158 3160 3161 3162 3163 3163 3163 3163 3162 3161 3160 3158 3157 3156 3154 3152 3151 3149 3148 3146 3145 3143 3141 3140 3138 3136 3134 3132 3131 3129 3127 3126 3124 3123 3121 3119 3118 3116 3115 3113 3112 3110 3108 3107 3105 3104 3102 3101 3099 3096 3094 3092 3089 3087 3085 3082 3080 3076
3151 3152 3152 3154 3155 3156 3158 3159 3160 3160 3161 3161 3160 3159 3158 3157 3156 3155 3153 3152 3150 3149 3147 3146 3144 3142 3141 3139 3137 3135 3133 3132 3130 3128 3127 3125 3123 3122 3120 3119 3117 3115 3114 3112 3111 3109 3108 3106 3105 3103 3101 3100 3098 3096 3094 3092 3089 3087 3085 3083 3081 3078 3074
3148 3149 3150 3151 3153 3154 3156 3157 3158 3158 3159 3158 3158 3157 3156 3155 3153 3152 3151 3149 3148 3147 3145 3143 3142 3140 3138 3137 3135 3133 3131 3129 3127 3126 3124 3123 3121 3119 3118 3116 3115 3113 3112 3110 3108 3107 3105 3104 3102 3101 3099 3097 3096 3094 3092 3089 3086 3084 3082 3080 3078 3076 3073
3146 3146 3147 3149 3151 3152 3154 3155 3155 3156 3156 3156 3156 3155 3153 3152 3151 3149 3148 3147 3146 3145 3143 3141 3139 3138 3136 3134 3133 3131 3129 3127 3125 3124 3122 3121 3119 3117 3116 3114 3112 3111 3109 3108 3106 3105 3103 3102 3101 3099 3097 3095 3093 3091 3089 3087 3084 3082 3080 3078 3076 3073 3071
3144 3144 3145 3146 3148 3150 3151 3153 3153 3154 3154 3154 3153 3152 3151 3149 3148 3147 3145 3144 3143 3142 3141 3139 3137 3135 3134 3132 3130 3129 3127 3125 3123 3122 3120 3119 3117 3116 3114 3112 3110 3109 3107 3105 3104 3102 3101 3100 3098 3097 3095 3093 3091 3088 3087 3084 3082 3080 3078 3076 3074 3071 3069
3142 3143 3143 3145 3147 3148 3150 3151 3151 3152 3152 3151 3150 3149 3148 3146 3145 3144 3143 3142 3141 3140 3139 3137 3135 3133 3132 3130 3128 3126 3125 3123 3122 3120 3118 3117 3115 3113 3112 3110 3108 3107 3105 3104 3102 3100 3099 3098 3096 3094 3093 3090 3088 3086 3084 3082 3080 3078 3076 3074 3072 3069 3067
3140 3141 3142 3143 3145 3147 3148 3149 3149 3149 3149 3148 3147 3146 3144 3143 3142 3141 3140 3139 3138 3137 3136 3135 3133 3131 3129 3128 3126 3124 3123 3121 3120 3118 3116 3114 3113 3111 3110 3108 3106 3105 3103 3102 3100 3099 3097 3096 3094 3092 3091 3088 3086 3084 3082 3080 3078 3076 3074 3072 3070 3068 3066
3138 3139 3140 3142 3143 3145 3146 3147 3147 3146 3146 3145 3144 3142 3141 3140 3139 3138 3137 3137 3136 3135 3134 3132 3131 3129 3127 3125 3124 3122 3120 3119 3117 3116 3114 3112 3111 3109 3108 3106 3104 3103 3101 3100 3098 3097 3095 3094 3093 3091 3089 3087 3084 3082 3080 3078 3076 3074 3072 3070 3068 3066 3064
3137 3137 3139 3140 3142 3143 3144 3144 3143 3143 3142 3141 3140 3139 3138 3137 3136 3135 3135 3134 3133 3132 3131 3130 3128 3126 3125 3123 3121 3120 3118 3116 3115 3113 3112 3110 3109 3107 3106 3104 3103 3101 3100 3098 3097 3095 3094 3092 3091 3089 3087 3085 3083 3081 3079 3077 3075 3072 3070 3068 3066 3064 3062
3135 3136 3138 3139 3140 3141 3141 3141 3140 3140 3139 3138 3137 3136 3135 3134 3133 3132 3132 3132 3130 3129 3129 3127 3125 3124 3122 3121 3119 3117 3115 3114 3112 3111 3110 3108 3107 3105 3104 3102 3101 3099 3098 3097 3095 3093 3092 3090 3089 3087 3085 3083 3081 3079 3077 3075 3073 3071 3069 3067 3064 3062 3060
3134 3135 3136 3137 3138 3138 3138 3137 3137 3136 3135 3134 3133 3133 3132 3131 3129 3129 3129 3128 3127 3127 3126 3124 3122 3121 3120 3118 3117 3115 3113 3111 3110 3108 3107 3106 3104 3103 3102 3100 3099 3098 3096 3095 3094 3092 3090 3089 3087 3085 3084 3082 3080 3078 3076 3074 3072 3070 3067 3065 3063 3060 3058
3133 3133 3134 3134 3135 3135 3135 3134 3133 3133 3132 3131 3130 3129 3129 3128 3127 3126 3126 3125 3125 3124 3122 3120 3119 3118 3117 3116 3114 3112 3111 3109 3107 3106 3105 3103 3102 3101 3099 3098 3097 3096 3095 3093 3092 3090 3089 3087 3086 3084 3083 3081 3079 3076 3074 3072 3070 3068 3066 3064 3061 3059 3057
3131 3131 3132 3132 3132 3132 3131 3131 3130 3130 3129 3128 3127 3126 3125 3124 3124 3123 3122 3122 3121 3120 3118 3117 3116 3115 3114 3113 3111 3110 3108 3107 3105 3103 3102 3100 3099 3098 3097 3096 3095 3094 3093 3091 3090 3088 3087 3085 3084 3082 3081 3079 3077 3075 3073 3071 3068 3066 3064 3062 3060 3058 3056
3129 3129 3129 3129 3129 3128 3128 3127 3127 3126 3125 3124 3124 3123 3122 3121 3120 3119 3118 3118 3118 3116 3114 3113 3113 3112 3111 3110 3108 3107 3105 3104 3102 3101 3099 3098 3096 3095 3095 3094 3093 3092 3090 3089 3087 3086 3085 3084 3082 3081 3079 3077 3076 3074 3072 3069 3067 3065 3063 3061 3059 3057 3055
3126 3127 3127 3126 3126 3125 3125 3124 3124 3123 3122 3121 3120 3119 3118 3117 3116 3115 3115 3115 3114 3112 3111 3110 3110 3109 3108 3107 3105 3103 3102 3101 3099 3098 3096 3095 3094 3093 3092 3091 3090 3089 3088 3086 3085 3084 3083 3081 3080 3078 3077 3075 3074 3072 3070 3068 3066 3063 3061 3059 3058 3056 3053
3124 3124 3124 3123 3123 3122 3122 3121 3120 3119 3118 3117 3116 3115 3114 3113 3112 3111 3111 3110 3109 3108 3108 3107 3106 3106 3105 3103 3101 3100 3099 3097 3096 3095 3093 3092 3092 3091 3090 3089 3088 3087 3085 3084 3083 3081 3080 3079 3078 3076 3075 3073 3072 3070 3068 3066 3064 3062 3060 3058 3056 3054 3052
3121 3121 3121 3120 3120 3119 3118 3117 3116 3115 3114 3113 3112 3111 3109 3108 3107 3107 3107 3106 3106 3105 3104 3104 3103 3102 3101 3099 3098 3097 3095 3094 3093 3091 3090 3089 3089 3088 3087 3086 3085 3084 3083 3082 3080 3079 3078 3076 3075 3074 3073 3071 3070 3068 3067 3065 3063 3061 3059 3057 3055 3053 3052
3118 3118 3117 3117 3116 3115 3114 3113 3112 3111 3110 3108 3107 3106 3104 3104 3103 3103 3103 3102 3102 3101 3101 3100 3099 3098 3097 3096 3094 3093 3092 3091 3090 3088 3087 3086 3086 3085 3084 3083 3082 3081 3080 3079 3078 3076 3075 3074 3073 3071 3070 3069 3068 3066 3065 3063 3061 3059 3057 3056 3054 3053 3051
3115 3114 3114 3113 3112 3111 3110 3109 3107 3106 3105 3103 3102 3101 3100 3100 3099 3099 3099 3099 3098 3097 3097 3096 3095 3094 3093 3092 3091 3090 3088 3087 3086 3085 3084 3083 3083 3082 3081 3080 3078 3077 3077 3076 3075 3074 3073 3071 3070 3069 3068 3066 3065 3064 3063 3061 3059 3057 3056 3054 3052 3051 3050
3111 3110 3110 3109 3108 3107 3105 3104 3103 3101 3100 3099 3098 3097 3096 3096 3096 3095 3095 3095 3094 3094 3093 3092 3091 3090 3090 3088 3087 3086 3085 3083 3082 3082 3081 3080 3079 3078 3077 3076 3075 3074 3073 3073 3072 3071 3070 3069 3068 3067 3065 3064 3063 3061 3060 3059 3057 3056 3054 3052 3051 3049 3048
3107 3107 3106 3105 3104 3102 3101 3099 3098 3096 3095 3094 3094 3093 3093 3092 3092 3091 3091 3090 3090 3089 3089 3088 3087 3086 3086 3085 3083 3082 3081 3080 3079 3078 3078 3077 3076 3075 3073 3073 3072 3071 3070 3070 3069 3068 3067 3066 3065 3064 3063 3062 3061 3059 3058 3056 3055 3054 3052 3051 3049 3048 3046
3104 3103 3102 3101 3099 3097 3096 3094 3093 3092 3091 3091 3090 3090 3089 3089 3088 3087 3086 3086 3085 3085 3084 3084 3083 3082 3081 3080 3079 3078 3077 3076 3075 3075 3074 3073 3073 3071 3069 3069 3069 3068 3067 3067 3066 3066 3064 3063 3062 3061 3060 3060 3059 3057 3056 3055 3053 3052 3050 3049 3048 3046 3045